sat.trackr.live / text

‹ back to catalog

STARLINK-36260

NORAD 67732 · 2026-026M

PAYLOAD ACTIVE UNKNOWN

§ Identity

Operator
Country
US
Launch date
2026-02-11
Launch site
AFWTR
Launch vehicle
Mass (kg)
RCS (m²)

Purposes: comms

External: N2YO · Heavens-Above · Gunter

§ Orbital elements

Epoch: 2026-05-25T03:33:41.529312Z

Period
93.91 min
Inclination
97.2854°
Eccentricity
0.0000783
Mean motion
15.33448319 rev/d
Perigee alt
465.0 km
Apogee alt
466.1 km
Semi-major
6,843.7 km
B*
5.2605e-4
RAAN
198.6761°
Arg perigee
91.4521°
Mean anomaly
268.6811°
Rev number
1,584

§ Raw data

STARLINK-362601 67732U 26026M   26145.14839733  .00016947  00000+0  52605-3 0  99942 67732  97.2854 198.6761 0000783  91.4521 268.6811 15.33448319 15841

JSON: /api/v1/satellites/67732 · /tle

For live sub-satellite position, see the globe view (requires WebGL).

§ Visibility from observer

Set your observer location to see the next 7 days of passes ≥ 10°. The values pass through the URL so the page stays shareable.

No JS? Fill the form by hand. The geolocation button needs JavaScript.